Weather Service Report


491 
ASUS43 KLMK 271210
RWRKY 
KENTUCKY REGIONAL WEATHER ROUNDUP
NATIONAL WEATHER SERVICE LOUISVILLE KY
800 AM EDT FRI MAY 27 2016

NOTE "FAIR" INDICATES FEW OR NO CLOUDS BELOW 12,000 FEET
WITH NO SIGNIFICANT WEATHER AND/OR OBSTRUCTIONS TO VISIBILITY.

KYZ001>023-026-027-061>063-070>075-271300-
WESTERN AND SOUTH CENTRAL KENTUCKY
  
CITY           SKY/WX    TMP DP  RH WIND       PRES   REMARKS
PADUCAH        CLOUDY    69  64  84 S5        29.94R                  
HENDERSON      CLOUDY    66  63  88 SE6       29.96S                  
OWENSBORO      CLOUDY    69  67  93 SE13      29.99S                  
HOPKINSVILLE   CLOUDY    68  65  91 SE10      30.00R                  
BOWLING GREEN  CLOUDY    66  65  96 CALM      30.04R                  
GLASGOW        CLOUDY    65  65 100 CALM      30.05S                  
$$

KYZ024-025-028>034-038-045-046-053-271300-
NORTH CENTRAL KENTUCKY
  
CITY           SKY/WX    TMP DP  RH WIND       PRES   REMARKS
LOUISVILLE/SDF PTSUNNY   68  63  84 SE7       30.02S                  
LOUISVILLE/LOU CLOUDY    68  63  84 SE3       30.03S                  
FORT KNOX      PTSUNNY   66  66 100 E3        30.02S                  
$$

KYZ035>037-039>044-047>052-055>060-089>105-271300-
NORTHEAST KENTUCKY
  
CITY           SKY/WX    TMP DP  RH WIND       PRES   REMARKS
LEXINGTON      MOSUNNY   67  64  90 S6        30.07R                  
COVINGTON      MOSUNNY   66  63  90 S6        30.04S                  
FRANKFORT      MOSUNNY   66  62  87 SE6       30.04S                  
$$

KYZ054-064>069-076>088-106>120-271300-
SOUTHEAST KENTUCKY
  
CITY           SKY/WX    TMP DP  RH WIND       PRES   REMARKS
JACKSON        PTSUNNY   68  61  78 CALM      30.11R                  
LONDON         SUNNY     66  61  84 CALM      30.10S                  
SOMERSET       SUNNY     64  64 100 S5        30.10S                  
MIDDLESBORO    SUNNY     62  61  96 CALM      30.14S                  
MONTICELLO     SUNNY     69  64  84 NE7       30.10S                  
$$

  

Return to Home page


Western Regional Climate Center, wrcc@dri.edu